Tracking 28126 objects as of 2-Oct-2023
HD Live streaming from Space Station
objects crossing your sky now

STARLINK-4041

Track STARLINK-4041 now!
10-day predictions
STARLINK-4041 is classified as:


NORAD ID: 52695
Int'l Code: 2022-053AR
Perigee: 545.9 km
Apogee: 547.8 km
Inclination: 53.2 °
Period: 95.4 minutes
Semi major axis: 6917 km
RCS: Unknown
Launch date: May 18, 2022
Source: United States (US)
Launch site: AIR FORCE EASTERN TEST RANGE (AFETR)
Your satellite tracking list
Your tracking list is empty




NASA's NSSDC Master Catalog

Two Line Element Set (TLE):
1 52695U 22053AR  23274.88694093  .00018978  00000-0  12068-2 0  9996
2 52695  53.2161 183.3990 0001362  87.6490 272.4658 15.08853619 76762
Source of the keplerian elements: AFSPC